Time,TemperatureF,DewpointF,PressureIn,WindDirection,WindDirectionDegrees,WindSpeedMPH,WindSpeedGustMPH,Humidity,HourlyPrecipIn,Conditions,Clouds,dailyrainin,SoftwareType,DateUTC
2013-10-30 00:00:00,41.9,38.0,30.28,South,187,0.0,0.0,86,0.00,,---,0.00,VWS V14.01,2013-10-30 04:00:00,
2013-10-30 00:10:00,42.2,38.6,30.28,South,187,0.0,0.0,87,0.00,,---,0.00,VWS V14.01,2013-10-30 04:10:00,
2013-10-30 00:20:00,42.2,38.3,30.27,SSW,206,0.0,0.0,86,0.00,,---,0.00,VWS V14.01,2013-10-30 04:20:00,
2013-10-30 00:30:00,42.1,38.2,30.26,SSW,206,0.0,0.0,86,0.00,,---,0.00,VWS V14.01,2013-10-30 04:30:00,
2013-10-30 00:40:00,41.8,37.9,30.26,SSW,206,0.0,0.0,86,0.00,,---,0.00,VWS V14.01,2013-10-30 04:40:00,
2013-10-30 00:50:00,41.7,38.1,30.25,SSW,206,0.0,0.0,87,0.00,,---,0.00,VWS V14.01,2013-10-30 04:50:00,
2013-10-30 04:08:00,45.0,39.5,30.19,SW,236,0.0,0.0,81,0.00,,---,0.00,VWS V14.01,2013-10-30 08:08:00,
2013-10-30 04:10:00,45.0,39.5,30.18,SW,236,0.0,0.0,81,0.00,,---,0.00,VWS V14.01,2013-10-30 08:10:00,
2013-10-30 04:13:00,45.2,40.0,30.19,SW,236,0.0,0.0,82,0.00,,---,0.00,VWS V14.01,2013-10-30 08:13:00,
2013-10-30 04:18:00,45.2,40.3,30.19,SW,236,0.0,0.0,83,0.00,,---,0.00,VWS V14.01,2013-10-30 08:18:00,
2013-10-30 04:20:00,45.2,40.3,30.19,SW,236,0.0,0.0,83,0.00,,---,0.00,VWS V14.01,2013-10-30 08:20:00,
2013-10-30 04:23:00,45.0,40.5,30.18,SW,236,0.0,0.0,84,0.00,,---,0.00,VWS V14.01,2013-10-30 08:23:00,
2013-10-30 04:28:00,44.8,40.0,30.17,SSW,207,0.0,0.0,83,0.00,,---,0.00,VWS V14.01,2013-10-30 08:28:00,
2013-10-30 04:30:00,44.8,40.0,30.17,SSW,207,0.0,0.0,83,0.00,,---,0.00,VWS V14.01,2013-10-30 08:30:00,
2013-10-30 04:33:00,44.7,39.9,30.17,SSW,207,0.0,0.0,83,0.00,,---,0.00,VWS V14.01,2013-10-30 08:33:00,
2013-10-30 04:38:00,44.7,39.9,30.17,SSW,207,0.0,0.0,83,0.00,,---,0.00,VWS V14.01,2013-10-30 08:38:00,
2013-10-30 04:40:00,44.7,39.9,30.17,SSW,208,0.0,0.0,83,0.00,,---,0.00,VWS V14.01,2013-10-30 08:40:00,
2013-10-30 04:43:00,44.7,39.9,30.17,SSW,207,0.0,0.0,83,0.00,,---,0.00,VWS V14.01,2013-10-30 08:43:00,
2013-10-30 04:48:00,44.7,39.9,30.16,SSW,207,0.0,0.0,83,0.00,,---,0.00,VWS V14.01,2013-10-30 08:48:00,
2013-10-30 04:50:00,44.7,39.9,30.16,SSW,207,0.0,0.0,83,0.00,,---,0.00,VWS V14.01,2013-10-30 08:50:00,
2013-10-30 04:53:00,44.4,39.9,30.16,SSW,207,0.0,0.0,84,0.00,,---,0.00,VWS V14.01,2013-10-30 08:53:00,
2013-10-30 04:58:00,44.2,39.7,30.17,SSW,207,0.0,0.0,84,0.00,,---,0.00,VWS V14.01,2013-10-30 08:58:00,
2013-10-30 05:00:00,44.2,39.7,30.17,SSW,207,0.0,0.0,84,0.00,,---,0.00,VWS V14.01,2013-10-30 09:00:00,
2013-10-30 05:03:00,44.2,40.0,30.17,SSW,207,0.0,0.0,85,0.00,,---,0.00,VWS V14.01,2013-10-30 09:03:00,
2013-10-30 05:08:00,44.5,40.0,30.17,SSW,207,0.0,0.0,84,0.00,,---,0.00,VWS V14.01,2013-10-30 09:08:00,
2013-10-30 05:10:00,44.4,39.9,30.17,SSW,207,0.0,0.0,84,0.00,,---,0.00,VWS V14.01,2013-10-30 09:10:00,
2013-10-30 05:13:00,44.6,40.4,30.18,SSW,207,0.0,0.0,85,0.00,,---,0.00,VWS V14.01,2013-10-30 09:13:00,
2013-10-30 05:18:00,44.7,40.5,30.18,SSW,208,0.0,0.0,85,0.00,,---,0.00,VWS V14.01,2013-10-30 09:18:00,
2013-10-30 05:20:00,44.7,40.5,30.18,SSW,207,0.0,0.0,85,0.00,,---,0.00,VWS V14.01,2013-10-30 09:20:00,
2013-10-30 05:23:00,44.8,40.6,30.18,SSW,207,0.0,0.0,85,0.00,,---,0.00,VWS V14.01,2013-10-30 09:23:00,
2013-10-30 05:28:00,44.9,40.7,30.18,SE,139,0.0,0.0,85,0.00,,---,0.00,VWS V14.01,2013-10-30 09:28:00,
2013-10-30 05:30:00,44.9,40.7,30.18,SE,138,0.0,0.0,85,0.00,,---,0.00,VWS V14.01,2013-10-30 09:30:00,
2013-10-30 05:33:00,44.9,40.7,30.18,SE,139,0.0,0.0,85,0.00,,---,0.00,VWS V14.01,2013-10-30 09:33:00,
2013-10-30 05:38:00,44.9,40.4,30.18,ESE,105,0.0,0.0,84,0.00,,---,0.00,VWS V14.01,2013-10-30 09:38:00,
2013-10-30 05:40:00,44.9,40.7,30.18,ESE,107,0.0,0.0,85,0.00,,---,0.00,VWS V14.01,2013-10-30 09:40:00,
2013-10-30 05:43:00,45.1,40.6,30.18,ESE,106,0.0,0.0,84,0.00,,---,0.00,VWS V14.01,2013-10-30 09:43:00,
2013-10-30 05:48:00,45.3,40.5,30.18,NE,40,0.0,0.0,83,0.00,,---,0.00,VWS V14.01,2013-10-30 09:48:00,
2013-10-30 05:50:00,45.3,40.5,30.18,NE,40,0.0,0.0,83,0.00,,---,0.00,VWS V14.01,2013-10-30 09:50:00,
2013-10-30 05:53:00,45.5,40.7,30.19,NE,36,0.0,0.0,83,0.00,,---,0.00,VWS V14.01,2013-10-30 09:53:00,
2013-10-30 05:58:00,45.6,40.7,30.19,NW,321,0.0,0.0,83,0.00,,---,0.00,VWS V14.01,2013-10-30 09:58:00,
2013-10-30 06:00:00,45.6,40.7,30.19,NNE,17,0.0,0.0,83,0.00,,---,0.00,VWS V14.01,2013-10-30 10:00:00,
2013-10-30 06:03:00,45.7,41.2,30.19,NW,322,0.0,0.0,84,0.00,,---,0.00,VWS V14.01,2013-10-30 10:03:00,
2013-10-30 06:08:00,45.7,41.2,30.19,NW,321,0.0,0.0,84,0.00,,---,0.00,VWS V14.01,2013-10-30 10:08:00,
2013-10-30 06:10:00,45.7,41.2,30.19,NW,322,0.0,0.0,84,0.00,,---,0.00,VWS V14.01,2013-10-30 10:10:00,
2013-10-30 06:13:00,45.7,40.8,30.19,NW,321,0.0,0.0,83,0.00,,---,0.00,VWS V14.01,2013-10-30 10:13:00,
2013-10-30 06:18:00,45.8,41.2,30.19,NW,321,0.0,0.0,84,0.00,,---,0.00,VWS V14.01,2013-10-30 10:18:00,
2013-10-30 06:20:00,45.8,41.2,30.19,NW,322,0.0,0.0,84,0.00,,---,0.00,VWS V14.01,2013-10-30 10:20:00,
2013-10-30 06:23:00,45.9,41.3,30.18,NW,321,0.0,0.0,84,0.00,,---,0.00,VWS V14.01,2013-10-30 10:23:00,
2013-10-30 06:28:00,45.9,41.3,30.18,NNE,31,0.0,0.0,84,0.00,,---,0.00,VWS V14.01,2013-10-30 10:28:00,
2013-10-30 06:30:00,45.9,41.3,30.18,NNE,32,0.0,0.0,84,0.00,,---,0.00,VWS V14.01,2013-10-30 10:30:00,
2013-10-30 06:33:00,45.9,41.3,30.18,NE,34,0.0,0.0,84,0.00,,---,0.00,VWS V14.01,2013-10-30 10:33:00,
2013-10-30 06:38:00,46.0,41.1,30.18,NE,36,0.0,0.0,83,0.00,,---,0.00,VWS V14.01,2013-10-30 10:38:00,
2013-10-30 06:40:00,46.0,41.1,30.18,NE,36,0.0,0.0,83,0.00,,---,0.00,VWS V14.01,2013-10-30 10:40:00,
2013-10-30 06:43:00,46.1,41.2,30.19,NNE,33,0.0,0.0,83,0.00,,---,0.00,VWS V14.01,2013-10-30 10:43:00,
2013-10-30 06:48:00,46.0,41.4,30.19,NE,34,0.0,0.0,84,0.00,,---,0.00,VWS V14.01,2013-10-30 10:48:00,
2013-10-30 06:50:00,46.1,41.5,30.19,NE,34,0.0,0.0,84,0.00,,---,0.00,VWS V14.01,2013-10-30 10:50:00,
2013-10-30 06:53:00,46.1,41.8,30.18,WSW,256,0.0,0.0,85,0.00,,---,0.00,VWS V14.01,2013-10-30 10:53:00,
2013-10-30 06:58:00,46.0,41.8,30.18,WSW,256,0.0,0.0,85,0.00,,---,0.00,VWS V14.01,2013-10-30 10:58:00,
2013-10-30 07:00:00,46.0,41.8,30.18,WSW,256,0.0,0.0,85,0.00,,---,0.00,VWS V14.01,2013-10-30 11:00:00,
2013-10-30 07:03:00,45.9,41.3,30.18,WSW,256,0.0,0.0,84,0.00,,---,0.00,VWS V14.01,2013-10-30 11:03:00,
2013-10-30 07:08:00,45.9,41.3,30.18,WSW,256,0.0,0.0,84,0.00,,---,0.00,VWS V14.01,2013-10-30 11:08:00,
2013-10-30 07:10:00,45.9,41.3,30.18,WSW,256,0.0,0.0,84,0.00,,---,0.00,VWS V14.01,2013-10-30 11:10:00,
2013-10-30 07:13:00,46.0,41.4,30.18,WSW,256,0.0,0.0,84,0.00,,---,0.00,VWS V14.01,2013-10-30 11:13:00,
2013-10-30 07:18:00,46.1,41.5,30.18,WSW,256,0.0,0.0,84,0.00,,---,0.00,VWS V14.01,2013-10-30 11:18:00,
2013-10-30 07:20:00,46.1,41.5,30.18,WSW,256,0.0,0.0,84,0.00,,---,0.00,VWS V14.01,2013-10-30 11:20:00,
2013-10-30 07:23:00,46.2,41.6,30.18,WSW,256,0.0,0.0,84,0.00,,---,0.00,VWS V14.01,2013-10-30 11:23:00,
2013-10-30 07:28:00,46.3,41.7,30.18,WSW,256,0.0,0.0,84,0.00,,---,0.00,VWS V14.01,2013-10-30 11:28:00,
2013-10-30 07:30:00,46.3,41.7,30.18,WSW,256,0.0,0.0,84,0.00,,---,0.00,VWS V14.01,2013-10-30 11:30:00,
2013-10-30 07:33:00,46.4,41.8,30.18,WSW,256,0.0,0.0,84,0.00,,---,0.00,VWS V14.01,2013-10-30 11:33:00,
2013-10-30 07:38:00,46.4,41.8,30.18,WSW,256,0.0,0.0,84,0.00,,---,0.00,VWS V14.01,2013-10-30 11:38:00,
2013-10-30 07:40:00,46.4,41.8,30.18,WSW,256,0.0,0.0,84,0.00,,---,0.00,VWS V14.01,2013-10-30 11:40:00,
2013-10-30 07:43:00,46.4,41.8,30.18,WSW,256,0.0,0.0,84,0.00,,---,0.00,VWS V14.01,2013-10-30 11:43:00,
2013-10-30 07:48:00,46.5,41.9,30.18,WSW,257,0.0,0.0,84,0.00,,---,0.00,VWS V14.01,2013-10-30 11:48:00,
2013-10-30 07:50:00,46.5,41.9,30.18,WSW,256,0.0,0.0,84,0.00,,---,0.00,VWS V14.01,2013-10-30 11:50:00,
2013-10-30 07:53:00,46.6,42.0,30.19,WSW,257,0.0,0.0,84,0.00,,---,0.00,VWS V14.01,2013-10-30 11:53:00,
2013-10-30 07:58:00,46.7,42.1,30.19,WSW,256,0.0,0.0,84,0.00,,---,0.00,VWS V14.01,2013-10-30 11:58:00,
2013-10-30 08:00:00,46.7,42.1,30.19,WSW,256,0.0,0.0,84,0.00,,---,0.00,VWS V14.01,2013-10-30 12:00:00,
2013-10-30 08:03:00,46.8,42.2,30.19,WSW,256,0.0,0.0,84,0.00,,---,0.00,VWS V14.01,2013-10-30 12:03:00,
2013-10-30 08:08:00,46.9,42.0,30.19,WNW,294,0.0,0.0,83,0.00,,---,0.00,VWS V14.01,2013-10-30 12:08:00,
2013-10-30 08:10:00,46.9,42.0,30.19,WSW,256,0.0,0.0,83,0.00,,---,0.00,VWS V14.01,2013-10-30 12:10:00,
2013-10-30 08:13:00,47.1,42.2,30.19,WNW,294,0.0,0.0,83,0.00,,---,0.00,VWS V14.01,2013-10-30 12:13:00,
2013-10-30 08:18:00,47.3,42.1,30.19,WNW,294,0.0,0.0,82,0.00,,---,0.00,VWS V14.01,2013-10-30 12:18:00,
2013-10-30 08:20:00,47.3,42.1,30.19,WNW,294,0.0,0.0,82,0.00,,---,0.00,VWS V14.01,2013-10-30 12:20:00,
2013-10-30 08:23:00,47.5,42.6,30.19,WNW,294,0.0,0.0,83,0.00,,---,0.00,VWS V14.01,2013-10-30 12:23:00,
2013-10-30 08:28:00,47.7,42.8,30.19,NNE,24,0.0,0.0,83,0.00,,---,0.00,VWS V14.01,2013-10-30 12:28:00,
2013-10-30 08:30:00,47.6,42.7,30.19,NNE,24,0.0,0.0,83,0.00,,---,0.00,VWS V14.01,2013-10-30 12:30:00,
2013-10-30 08:33:00,48.0,43.1,30.19,WSW,254,0.0,0.0,83,0.00,,---,0.00,VWS V14.01,2013-10-30 12:33:00,
2013-10-30 08:38:00,48.2,43.3,30.19,WSW,254,0.0,0.0,83,0.00,,---,0.00,VWS V14.01,2013-10-30 12:38:00,
2013-10-30 08:40:00,48.2,43.3,30.19,WSW,254,0.0,0.0,83,0.00,,---,0.00,VWS V14.01,2013-10-30 12:40:00,
2013-10-30 08:43:00,48.4,43.5,30.19,North,360,0.0,0.0,83,0.00,,---,0.00,VWS V14.01,2013-10-30 12:43:00,
2013-10-30 08:48:00,48.6,43.4,30.19,NE,44,0.0,0.0,82,0.00,,---,0.00,VWS V14.01,2013-10-30 12:48:00,
2013-10-30 08:50:00,48.6,43.4,30.19,NE,44,0.0,0.0,82,0.00,,---,0.00,VWS V14.01,2013-10-30 12:50:00,
2013-10-30 08:53:00,48.8,43.2,30.20,NE,40,0.0,0.0,81,0.00,,---,0.00,VWS V14.01,2013-10-30 12:53:00,
2013-10-30 08:58:00,49.1,43.5,30.20,NE,40,0.0,0.0,81,0.00,,---,0.00,VWS V14.01,2013-10-30 12:58:00,
2013-10-30 09:00:00,49.0,43.4,30.20,NE,40,0.0,0.0,81,0.00,,---,0.00,VWS V14.01,2013-10-30 13:00:00,
2013-10-30 09:03:00,49.3,43.7,30.20,NE,40,0.0,0.0,81,0.00,,---,0.00,VWS V14.01,2013-10-30 13:03:00,
2013-10-30 09:08:00,49.4,43.8,30.20,NE,44,0.0,0.0,81,0.00,,---,0.00,VWS V14.01,2013-10-30 13:08:00,
2013-10-30 09:10:00,49.5,43.9,30.20,NE,40,0.0,0.0,81,0.00,,---,0.00,VWS V14.01,2013-10-30 13:10:00,
2013-10-30 09:13:00,49.5,43.9,30.20,NNE,30,0.0,0.0,81,0.00,,---,0.00,VWS V14.01,2013-10-30 13:13:00,
2013-10-30 09:18:00,49.7,44.1,30.20,NE,44,0.0,0.0,81,0.00,,---,0.00,VWS V14.01,2013-10-30 13:18:00,
2013-10-30 09:20:00,49.6,44.0,30.20,NE,44,0.0,0.0,81,0.00,,---,0.00,VWS V14.01,2013-10-30 13:20:00,
2013-10-30 09:23:00,49.8,44.2,30.20,NE,44,0.0,0.0,81,0.00,,---,0.00,VWS V14.01,2013-10-30 13:23:00,
2013-10-30 09:28:00,50.0,44.4,30.20,NE,44,0.0,0.0,81,0.00,,---,0.00,VWS V14.01,2013-10-30 13:28:00,
2013-10-30 09:30:00,50.0,44.4,30.20,NE,44,0.0,0.0,81,0.00,,---,0.00,VWS V14.01,2013-10-30 13:30:00,
2013-10-30 09:33:00,50.1,44.5,30.20,NE,38,0.0,0.0,81,0.00,,---,0.00,VWS V14.01,2013-10-30 13:33:00,
2013-10-30 09:38:00,50.3,44.4,30.20,NE,46,0.0,0.0,80,0.00,,---,0.00,VWS V14.01,2013-10-30 13:38:00,
2013-10-30 09:40:00,50.3,44.7,30.20,NE,45,0.0,0.0,81,0.00,,---,0.00,VWS V14.01,2013-10-30 13:40:00,
2013-10-30 09:43:00,50.6,44.7,30.20,NE,49,0.0,1.0,80,0.00,,---,0.00,VWS V14.01,2013-10-30 13:43:00,
2013-10-30 09:48:00,50.7,44.4,30.20,NE,49,0.0,1.0,79,0.00,,---,0.00,VWS V14.01,2013-10-30 13:48:00,
2013-10-30 09:50:00,50.7,44.4,30.20,NE,34,0.0,2.0,79,0.00,,---,0.00,VWS V14.01,2013-10-30 13:50:00,
2013-10-30 09:53:00,51.0,45.1,30.20,NE,38,0.0,1.0,80,0.00,,---,0.00,VWS V14.01,2013-10-30 13:53:00,
2013-10-30 09:58:00,51.4,45.5,30.21,North,5,0.0,0.0,80,0.00,,---,0.00,VWS V14.01,2013-10-30 13:58:00,
2013-10-30 10:00:00,51.3,45.3,30.21,North,11,0.0,1.0,80,0.00,,---,0.00,VWS V14.01,2013-10-30 14:00:00,
2013-10-30 10:03:00,51.8,45.8,30.21,North,349,0.0,0.0,80,0.00,,---,0.00,VWS V14.01,2013-10-30 14:03:00,
2013-10-30 10:08:00,52.2,46.2,30.21,NNW,348,0.0,0.0,80,0.00,,---,0.00,VWS V14.01,2013-10-30 14:08:00,
2013-10-30 10:10:00,52.1,46.1,30.21,NNW,348,0.0,0.0,80,0.00,,---,0.00,VWS V14.01,2013-10-30 14:10:00,
2013-10-30 10:13:00,52.6,46.3,30.21,NNW,348,0.0,0.0,79,0.00,,---,0.00,VWS V14.01,2013-10-30 14:13:00,
2013-10-30 10:18:00,52.9,46.6,30.21,NNE,32,0.0,0.0,79,0.00,,---,0.00,VWS V14.01,2013-10-30 14:18:00,
2013-10-30 10:20:00,52.9,46.6,30.21,NNE,32,0.0,0.0,79,0.00,,---,0.00,VWS V14.01,2013-10-30 14:20:00,
2013-10-30 10:23:00,53.2,46.9,30.21,NNE,29,0.0,0.0,79,0.00,,---,0.00,VWS V14.01,2013-10-30 14:23:00,
2013-10-30 10:28:00,53.6,46.9,30.21,ESE,109,0.0,0.0,78,0.00,,---,0.00,VWS V14.01,2013-10-30 14:28:00,
2013-10-30 10:30:00,53.5,46.8,30.21,NNE,30,0.0,0.0,78,0.00,,---,0.00,VWS V14.01,2013-10-30 14:30:00,
2013-10-30 10:33:00,53.8,46.8,30.20,NE,35,0.0,0.0,77,0.00,,---,0.00,VWS V14.01,2013-10-30 14:33:00,
2013-10-30 10:38:00,54.1,47.1,30.21,NNE,32,0.0,0.0,77,0.00,,---,0.00,VWS V14.01,2013-10-30 14:38:00,
2013-10-30 10:40:00,54.1,47.1,30.21,NE,35,0.0,0.0,77,0.00,,---,0.00,VWS V14.01,2013-10-30 14:40:00,
2013-10-30 10:44:00,54.5,47.1,30.21,NE,52,0.0,0.0,76,0.00,,---,0.00,VWS V14.01,2013-10-30 14:44:00,
2013-10-30 10:49:00,54.7,47.6,30.21,SSE,153,0.0,0.0,77,0.00,,---,0.00,VWS V14.01,2013-10-30 14:49:00,
2013-10-30 10:50:00,54.7,47.3,30.21,SSE,159,0.0,0.0,76,0.00,,---,0.00,VWS V14.01,2013-10-30 14:50:00,
2013-10-30 10:54:00,54.9,47.8,30.21,ESE,120,0.0,1.0,77,0.00,,---,0.00,VWS V14.01,2013-10-30 14:54:00,
2013-10-30 10:59:00,55.1,48.0,30.21,ESE,113,0.0,0.0,77,0.00,,---,0.00,VWS V14.01,2013-10-30 14:59:00,
2013-10-30 11:00:00,55.1,48.0,30.21,ESE,113,0.0,1.0,77,0.00,,---,0.00,VWS V14.01,2013-10-30 15:00:00,
2013-10-30 11:04:00,55.4,48.0,30.21,NE,35,0.0,0.0,76,0.00,,---,0.00,VWS V14.01,2013-10-30 15:04:00,
2013-10-30 11:09:00,55.6,48.5,30.21,SE,140,0.0,0.0,77,0.00,,---,0.00,VWS V14.01,2013-10-30 15:09:00,
2013-10-30 11:10:00,55.6,48.5,30.21,ESE,121,0.0,0.0,77,0.00,,---,0.00,VWS V14.01,2013-10-30 15:10:00,
2013-10-30 11:14:00,55.9,48.8,30.21,SE,132,0.0,0.0,77,0.00,,---,0.00,VWS V14.01,2013-10-30 15:14:00,
2013-10-30 11:19:00,56.3,49.2,30.21,East,101,0.0,0.0,77,0.00,,---,0.00,VWS V14.01,2013-10-30 15:19:00,
2013-10-30 11:20:00,56.2,49.1,30.21,East,96,0.0,0.0,77,0.00,,---,0.00,VWS V14.01,2013-10-30 15:20:00,
2013-10-30 11:24:00,56.7,49.2,30.21,East,100,0.0,0.0,76,0.00,,---,0.00,VWS V14.01,2013-10-30 15:24:00,
2013-10-30 11:29:00,57.0,49.5,30.21,NE,49,0.0,0.0,76,0.00,,---,0.00,VWS V14.01,2013-10-30 15:29:00,
2013-10-30 11:30:00,57.0,49.2,30.21,NE,49,0.0,0.0,75,0.00,,---,0.00,VWS V14.01,2013-10-30 15:30:00,
2013-10-30 11:34:00,57.5,50.0,30.21,ENE,61,0.0,0.0,76,0.00,,---,0.00,VWS V14.01,2013-10-30 15:34:00,
2013-10-30 11:39:00,57.8,49.9,30.21,WSW,242,0.0,0.0,75,0.00,,---,0.00,VWS V14.01,2013-10-30 15:39:00,
2013-10-30 11:40:00,57.8,49.9,30.21,WSW,242,0.0,0.0,75,0.00,,---,0.00,VWS V14.01,2013-10-30 15:40:00,
2013-10-30 11:44:00,58.1,50.9,30.21,SSW,210,0.0,0.0,77,0.00,,---,0.00,VWS V14.01,2013-10-30 15:44:00,
2013-10-30 11:49:00,58.5,51.3,30.21,West,260,0.0,0.0,77,0.00,,---,0.00,VWS V14.01,2013-10-30 15:49:00,
2013-10-30 11:50:00,58.4,51.2,30.21,WSW,238,0.0,0.0,77,0.00,,---,0.00,VWS V14.01,2013-10-30 15:50:00,
2013-10-30 11:54:00,58.8,51.6,30.21,SW,236,0.0,0.0,77,0.00,,---,0.00,VWS V14.01,2013-10-30 15:54:00,
2013-10-30 11:59:00,58.9,52.1,30.20,SSW,213,1.0,3.0,78,0.00,,---,0.00,VWS V14.01,2013-10-30 15:59:00,
2013-10-30 12:00:00,58.9,52.1,30.21,SW,227,2.0,5.0,78,0.00,,---,0.00,VWS V14.01,2013-10-30 16:00:00,
2013-10-30 12:04:00,58.8,52.0,30.20,WNW,290,0.0,4.0,78,0.00,,---,0.00,VWS V14.01,2013-10-30 16:04:00,
2013-10-30 12:09:00,58.8,52.0,30.20,South,188,1.0,3.0,78,0.00,,---,0.00,VWS V14.01,2013-10-30 16:09:00,
2013-10-30 12:10:00,58.8,52.0,30.20,SSW,210,1.0,4.0,78,0.00,,---,0.00,VWS V14.01,2013-10-30 16:10:00,
2013-10-30 12:14:00,58.6,51.8,30.20,SW,234,0.0,3.0,78,0.00,,---,0.00,VWS V14.01,2013-10-30 16:14:00,
2013-10-30 12:19:00,58.5,52.0,30.20,SSW,213,0.0,0.0,79,0.00,,---,0.00,VWS V14.01,2013-10-30 16:19:00,
2013-10-30 12:20:00,58.5,52.0,30.20,SSW,209,0.0,4.0,79,0.00,,---,0.00,VWS V14.01,2013-10-30 16:20:00,
2013-10-30 12:24:00,58.4,51.9,30.20,SW,222,1.0,3.0,79,0.00,,---,0.00,VWS V14.01,2013-10-30 16:24:00,
2013-10-30 12:29:00,58.4,51.9,30.19,South,187,0.0,1.0,79,0.00,,---,0.00,VWS V14.01,2013-10-30 16:29:00,
2013-10-30 12:30:00,58.4,51.9,30.19,SSE,156,0.0,3.0,79,0.00,,---,0.00,VWS V14.01,2013-10-30 16:30:00,
2013-10-30 12:34:00,58.6,52.1,30.19,SW,233,1.0,4.0,79,0.00,,---,0.00,VWS V14.01,2013-10-30 16:34:00,
2013-10-30 12:39:00,58.6,52.1,30.19,SSW,193,2.0,2.0,79,0.00,,---,0.00,VWS V14.01,2013-10-30 16:39:00,
2013-10-30 12:40:00,58.6,52.1,30.19,SSW,196,0.0,4.0,79,0.00,,---,0.00,VWS V14.01,2013-10-30 16:40:00,
2013-10-30 12:44:00,58.9,52.8,30.18,SSW,205,0.0,3.0,80,0.00,,---,0.00,VWS V14.01,2013-10-30 16:44:00,
2013-10-30 12:49:00,58.9,52.8,30.18,SSW,210,0.0,1.0,80,0.00,,---,0.00,VWS V14.01,2013-10-30 16:49:00,
2013-10-30 12:50:00,58.8,52.3,30.18,SW,221,0.0,4.0,79,0.00,,---,0.00,VWS V14.01,2013-10-30 16:50:00,
2013-10-30 12:54:00,58.9,52.4,30.18,SW,222,1.0,4.0,79,0.00,,---,0.00,VWS V14.01,2013-10-30 16:54:00,
2013-10-30 12:59:00,59.0,52.5,30.18,South,188,1.0,2.0,79,0.00,,---,0.00,VWS V14.01,2013-10-30 16:59:00,
2013-10-30 13:00:00,59.0,52.8,30.18,SW,217,0.0,4.0,80,0.00,,---,0.00,VWS V14.01,2013-10-30 17:00:00,
2013-10-30 13:04:00,59.1,52.6,30.18,West,277,0.0,3.0,79,0.00,,---,0.00,VWS V14.01,2013-10-30 17:04:00,
2013-10-30 13:09:00,59.2,52.7,30.17,SW,227,0.0,0.0,79,0.00,,---,0.00,VWS V14.01,2013-10-30 17:09:00,
2013-10-30 13:10:00,59.2,52.3,30.17,SSW,210,0.0,3.0,78,0.00,,---,0.00,VWS V14.01,2013-10-30 17:10:00,
2013-10-30 13:14:00,59.2,52.7,30.17,WSW,248,1.0,2.0,79,0.00,,---,0.00,VWS V14.01,2013-10-30 17:14:00,
2013-10-30 13:19:00,59.4,52.9,30.17,SSW,208,0.0,2.0,79,0.00,,---,0.00,VWS V14.01,2013-10-30 17:19:00,
2013-10-30 13:20:00,59.4,52.9,30.17,SSW,213,1.0,2.0,79,0.00,,---,0.00,VWS V14.01,2013-10-30 17:20:00,
2013-10-30 13:24:00,59.5,52.6,30.17,SSW,198,0.0,3.0,78,0.00,,---,0.00,VWS V14.01,2013-10-30 17:24:00,
2013-10-30 13:29:00,59.6,52.7,30.17,West,279,0.0,1.0,78,0.00,,---,0.00,VWS V14.01,2013-10-30 17:29:00,
2013-10-30 13:30:00,59.6,52.7,30.17,WSW,244,1.0,3.0,78,0.00,,---,0.00,VWS V14.01,2013-10-30 17:30:00,
2013-10-30 13:34:00,59.9,53.0,30.16,SSW,203,1.0,2.0,78,0.00,,---,0.00,VWS V14.01,2013-10-30 17:34:00,
2013-10-30 13:39:00,59.9,52.7,30.16,WSW,240,0.0,2.0,77,0.00,,---,0.00,VWS V14.01,2013-10-30 17:39:00,
2013-10-30 13:40:00,59.9,53.0,30.16,SW,226,2.0,3.0,78,0.00,,---,0.00,VWS V14.01,2013-10-30 17:40:00,
2013-10-30 13:44:00,59.9,52.7,30.16,SSW,209,2.0,3.0,77,0.00,,---,0.00,VWS V14.01,2013-10-30 17:44:00,
2013-10-30 13:49:00,59.8,52.6,30.16,SW,225,0.0,0.0,77,0.00,,---,0.00,VWS V14.01,2013-10-30 17:49:00,
2013-10-30 13:50:00,59.8,52.6,30.16,WSW,248,0.0,4.0,77,0.00,,---,0.00,VWS V14.01,2013-10-30 17:50:00,
2013-10-30 13:54:00,60.0,52.8,30.15,SW,226,4.0,4.0,77,0.00,,---,0.00,VWS V14.01,2013-10-30 17:54:00,
2013-10-30 13:59:00,60.1,53.2,30.15,SSW,211,0.0,1.0,78,0.00,,---,0.00,VWS V14.01,2013-10-30 17:59:00,
2013-10-30 14:00:00,60.1,53.2,30.15,SSW,194,1.0,4.0,78,0.00,,---,0.00,VWS V14.01,2013-10-30 18:00:00,
2013-10-30 14:04:00,60.1,53.2,30.15,SSE,153,0.0,4.0,78,0.00,,---,0.00,VWS V14.01,2013-10-30 18:04:00,
2013-10-30 14:09:00,60.1,52.9,30.15,SSW,198,0.0,0.0,77,0.00,,---,0.00,VWS V14.01,2013-10-30 18:09:00,
2013-10-30 14:10:00,60.1,52.9,30.15,WSW,245,0.0,4.0,77,0.00,,---,0.00,VWS V14.01,2013-10-30 18:10:00,
2013-10-30 14:14:00,60.0,53.1,30.15,SW,227,1.0,4.0,78,0.00,,---,0.00,VWS V14.01,2013-10-30 18:14:00,
2013-10-30 14:19:00,60.1,53.2,30.15,SSE,161,0.0,0.0,78,0.00,,---,0.00,VWS V14.01,2013-10-30 18:19:00,
2013-10-30 14:20:00,60.0,53.5,30.15,SSW,199,0.0,4.0,79,0.00,,---,0.00,VWS V14.01,2013-10-30 18:20:00,
2013-10-30 14:24:00,60.3,53.4,30.15,WNW,288,0.0,1.0,78,0.00,,---,0.00,VWS V14.01,2013-10-30 18:24:00,
2013-10-30 14:29:00,60.3,53.4,30.15,SSE,149,2.0,2.0,78,0.00,,---,0.00,VWS V14.01,2013-10-30 18:29:00,
2013-10-30 14:30:00,60.3,53.4,30.15,South,169,0.0,4.0,78,0.00,,---,0.00,VWS V14.01,2013-10-30 18:30:00,
2013-10-30 14:34:00,60.1,53.6,30.14,SE,136,0.0,2.0,79,0.00,,---,0.00,VWS V14.01,2013-10-30 18:34:00,
2013-10-30 14:39:00,60.2,53.3,30.14,SSE,165,5.0,5.0,78,0.00,,---,0.00,VWS V14.01,2013-10-30 18:39:00,
2013-10-30 14:40:00,60.2,53.3,30.14,South,181,2.0,5.0,78,0.00,,---,0.00,VWS V14.01,2013-10-30 18:40:00,
2013-10-30 14:44:00,60.1,53.6,30.14,SE,137,0.0,5.0,79,0.00,,---,0.00,VWS V14.01,2013-10-30 18:44:00,
2013-10-30 14:49:00,60.1,53.2,30.14,South,188,3.0,5.0,78,0.00,,---,0.00,VWS V14.01,2013-10-30 18:49:00,
2013-10-30 14:50:00,60.1,53.2,30.14,SSW,192,3.0,5.0,78,0.00,,---,0.00,VWS V14.01,2013-10-30 18:50:00,
2013-10-30 14:54:00,60.1,53.6,30.13,SSW,209,3.0,5.0,79,0.00,,---,0.00,VWS V14.01,2013-10-30 18:54:00,
2013-10-30 14:59:00,59.9,53.7,30.13,SSW,210,2.0,6.0,80,0.00,,---,0.00,VWS V14.01,2013-10-30 18:59:00,
2013-10-30 15:00:00,60.0,53.5,30.13,SSE,164,5.0,6.0,79,0.00,,---,0.00,VWS V14.01,2013-10-30 19:00:00,
2013-10-30 15:04:00,60.0,53.8,30.14,South,178,4.0,6.0,80,0.00,,---,0.00,VWS V14.01,2013-10-30 19:04:00,
2013-10-30 15:09:00,60.0,53.8,30.13,SW,218,0.0,2.0,80,0.00,,---,0.00,VWS V14.01,2013-10-30 19:09:00,
2013-10-30 15:10:00,60.0,53.8,30.13,WSW,244,0.0,6.0,80,0.00,,---,0.00,VWS V14.01,2013-10-30 19:10:00,
2013-10-30 15:14:00,60.1,53.9,30.13,SSW,199,1.0,5.0,80,0.00,,---,0.00,VWS V14.01,2013-10-30 19:14:00,
2013-10-30 15:19:00,60.3,54.1,30.13,SE,144,0.0,0.0,80,0.00,,---,0.00,VWS V14.01,2013-10-30 19:19:00,
2013-10-30 15:20:00,60.3,54.5,30.13,SSE,168,0.0,5.0,81,0.00,,---,0.00,VWS V14.01,2013-10-30 19:20:00,
2013-10-30 15:24:00,60.3,54.1,30.13,SSW,211,1.0,5.0,80,0.00,,---,0.00,VWS V14.01,2013-10-30 19:24:00,
2013-10-30 15:29:00,60.4,54.2,30.13,SSE,154,0.0,1.0,80,0.00,,---,0.00,VWS V14.01,2013-10-30 19:29:00,
2013-10-30 15:30:00,60.4,54.2,30.13,SSW,210,0.0,5.0,80,0.00,,---,0.00,VWS V14.01,2013-10-30 19:30:00,
2013-10-30 15:34:00,60.5,54.3,30.14,SE,132,2.0,7.0,80,0.00,,---,0.00,VWS V14.01,2013-10-30 19:34:00,
2013-10-30 15:39:00,60.5,54.3,30.13,South,183,3.0,4.0,80,0.00,,---,0.00,VWS V14.01,2013-10-30 19:39:00,
2013-10-30 15:40:00,60.5,54.3,30.13,SW,234,2.0,7.0,80,0.00,,---,0.00,VWS V14.01,2013-10-30 19:40:00,
2013-10-30 15:44:00,60.6,54.4,30.13,SSE,155,2.0,4.0,80,0.00,,---,0.00,VWS V14.01,2013-10-30 19:44:00,
2013-10-30 15:49:00,60.9,54.7,30.12,SSE,163,2.0,6.0,80,0.00,,---,0.00,VWS V14.01,2013-10-30 19:49:00,
2013-10-30 15:50:00,60.8,54.6,30.12,ESE,119,4.0,5.0,80,0.00,,---,0.00,VWS V14.01,2013-10-30 19:50:00,
2013-10-30 15:54:00,61.0,54.5,30.12,SSE,168,5.0,6.0,79,0.00,,---,0.00,VWS V14.01,2013-10-30 19:54:00,
2013-10-30 15:59:00,61.1,54.5,30.12,South,186,1.0,3.0,79,0.00,,---,0.00,VWS V14.01,2013-10-30 19:59:00,
2013-10-30 16:00:00,61.1,54.5,30.12,SSW,203,2.0,6.0,79,0.00,,---,0.00,VWS V14.01,2013-10-30 20:00:00,
2013-10-30 16:04:00,61.0,54.5,30.13,South,191,0.0,5.0,79,0.00,,---,0.00,VWS V14.01,2013-10-30 20:04:00,
2013-10-30 16:09:00,61.0,54.1,30.13,SSW,209,0.0,4.0,78,0.00,,---,0.00,VWS V14.01,2013-10-30 20:09:00,
2013-10-30 16:10:00,61.0,54.5,30.13,SSW,200,3.0,5.0,79,0.00,,---,0.00,VWS V14.01,2013-10-30 20:10:00,
2013-10-30 16:14:00,61.1,54.5,30.12,South,174,0.0,4.0,79,0.00,,---,0.00,VWS V14.01,2013-10-30 20:14:00,
2013-10-30 16:19:00,61.2,54.6,30.12,South,171,0.0,0.0,79,0.00,,---,0.00,VWS V14.01,2013-10-30 20:19:00,
2013-10-30 16:20:00,61.2,54.6,30.12,SE,137,0.0,4.0,79,0.00,,---,0.00,VWS V14.01,2013-10-30 20:20:00,
2013-10-30 16:24:00,61.4,54.8,30.12,WSW,244,0.0,0.0,79,0.00,,---,0.00,VWS V14.01,2013-10-30 20:24:00,
2013-10-30 16:29:00,61.8,54.9,30.12,WSW,242,0.0,0.0,78,0.00,,---,0.00,VWS V14.01,2013-10-30 20:29:00,
2013-10-30 16:30:00,61.7,54.4,30.12,WSW,242,0.0,2.0,77,0.00,,---,0.00,VWS V14.01,2013-10-30 20:30:00,
2013-10-30 16:34:00,62.0,54.7,30.12,SW,221,2.0,2.0,77,0.00,,---,0.00,VWS V14.01,2013-10-30 20:34:00,
2013-10-30 16:39:00,61.7,54.4,30.12,ESE,116,0.0,0.0,77,0.00,,---,0.00,VWS V14.01,2013-10-30 20:39:00,
2013-10-30 16:40:00,61.8,54.5,30.12,SSE,150,0.0,3.0,77,0.00,,---,0.00,VWS V14.01,2013-10-30 20:40:00,
2013-10-30 16:44:00,61.6,54.3,30.12,SW,220,0.0,2.0,77,0.00,,---,0.00,VWS V14.01,2013-10-30 20:44:00,
2013-10-30 16:49:00,61.4,54.1,30.12,WSW,237,0.0,0.0,77,0.00,,---,0.00,VWS V14.01,2013-10-30 20:49:00,
2013-10-30 16:50:00,61.4,54.1,30.12,SSW,213,0.0,2.0,77,0.00,,---,0.00,VWS V14.01,2013-10-30 20:50:00,
2013-10-30 16:54:00,61.3,54.4,30.12,SW,215,1.0,3.0,78,0.00,,---,0.00,VWS V14.01,2013-10-30 20:54:00,
2013-10-30 16:59:00,61.1,54.2,30.12,SW,221,0.0,2.0,78,0.00,,---,0.00,VWS V14.01,2013-10-30 20:59:00,
2013-10-30 17:00:00,61.2,54.3,30.12,WSW,237,1.0,3.0,78,0.00,,---,0.00,VWS V14.01,2013-10-30 21:00:00,
2013-10-30 17:04:00,61.0,54.1,30.12,SSW,200,0.0,3.0,78,0.00,,---,0.00,VWS V14.01,2013-10-30 21:04:00,
2013-10-30 17:09:00,61.0,54.1,30.12,SSW,213,2.0,3.0,78,0.00,,---,0.00,VWS V14.01,2013-10-30 21:09:00,
2013-10-30 17:10:00,61.0,54.5,30.13,SSW,200,3.0,5.0,79,0.00,,---,0.00,VWS V14.01,2013-10-30 21:10:00,
2013-10-30 17:14:00,61.0,54.1,30.12,WSW,247,0.0,3.0,78,0.00,,---,0.00,VWS V14.01,2013-10-30 21:14:00,
2013-10-30 17:19:00,61.0,54.1,30.12,WSW,237,0.0,2.0,78,0.00,,---,0.00,VWS V14.01,2013-10-30 21:19:00,
2013-10-30 17:20:00,61.0,54.1,30.12,SW,225,1.0,4.0,78,0.00,,---,0.00,VWS V14.01,2013-10-30 21:20:00,
2013-10-30 17:24:00,61.0,54.1,30.12,SSW,210,2.0,2.0,78,0.00,,---,0.00,VWS V14.01,2013-10-30 21:24:00,
2013-10-30 17:29:00,60.9,54.3,30.12,WSW,250,0.0,0.0,79,0.00,,---,0.00,VWS V14.01,2013-10-30 21:29:00,
2013-10-30 17:30:00,61.0,54.5,30.13,SW,234,0.0,3.0,79,0.00,,---,0.00,VWS V14.01,2013-10-30 21:30:00,
2013-10-30 17:34:00,60.9,54.3,30.12,WSW,248,0.0,3.0,79,0.00,,---,0.00,VWS V14.01,2013-10-30 21:34:00,
2013-10-30 17:39:00,60.8,54.3,30.12,SSW,212,0.0,2.0,79,0.00,,---,0.00,VWS V14.01,2013-10-30 21:39:00,
2013-10-30 17:40:00,60.8,53.9,30.12,WSW,243,0.0,3.0,78,0.00,,---,0.00,VWS V14.01,2013-10-30 21:40:00,
2013-10-30 17:44:00,60.6,54.1,30.13,SSW,207,2.0,2.0,79,0.00,,---,0.00,VWS V14.01,2013-10-30 21:44:00,
2013-10-30 17:49:00,60.4,53.9,30.13,SSW,212,0.0,0.0,79,0.00,,---,0.00,VWS V14.01,2013-10-30 21:49:00,
2013-10-30 17:50:00,60.4,53.9,30.13,SW,219,0.0,3.0,79,0.00,,---,0.00,VWS V14.01,2013-10-30 21:50:00,
2013-10-30 17:54:00,60.3,53.8,30.13,SSW,207,0.0,4.0,79,0.00,,---,0.00,VWS V14.01,2013-10-30 21:54:00,
2013-10-30 17:59:00,60.1,53.6,30.12,WSW,238,0.0,0.0,79,0.00,,---,0.00,VWS V14.01,2013-10-30 21:59:00,
2013-10-30 18:00:00,60.1,53.6,30.13,SSW,211,0.0,4.0,79,0.00,,---,0.00,VWS V14.01,2013-10-30 22:00:00,
2013-10-30 18:04:00,60.0,53.5,30.12,SSW,196,0.0,1.0,79,0.00,,---,0.00,VWS V14.01,2013-10-30 22:04:00,
2013-10-30 18:09:00,59.9,53.7,30.13,SSW,211,0.0,0.0,80,0.00,,---,0.00,VWS V14.01,2013-10-30 22:09:00,
2013-10-30 18:10:00,59.9,53.7,30.13,SSW,203,0.0,1.0,80,0.00,,---,0.00,VWS V14.01,2013-10-30 22:10:00,
2013-10-30 18:14:00,59.8,53.6,30.13,SW,223,0.0,0.0,80,0.00,,---,0.00,VWS V14.01,2013-10-30 22:14:00,
2013-10-30 18:19:00,59.7,53.5,30.13,SSW,207,0.0,0.0,80,0.00,,---,0.00,VWS V14.01,2013-10-30 22:19:00,
2013-10-30 18:20:00,59.7,53.5,30.13,SSW,198,0.0,0.0,80,0.00,,---,0.00,VWS V14.01,2013-10-30 22:20:00,
2013-10-30 18:24:00,59.7,53.5,30.13,SSE,165,0.0,0.0,80,0.00,,---,0.00,VWS V14.01,2013-10-30 22:24:00,
2013-10-30 18:29:00,59.5,53.7,30.13,WSW,240,0.0,0.0,81,0.00,,---,0.00,VWS V14.01,2013-10-30 22:29:00,
2013-10-30 18:30:00,59.6,53.8,30.13,South,187,0.0,1.0,81,0.00,,---,0.00,VWS V14.01,2013-10-30 22:30:00,
2013-10-30 18:34:00,59.3,53.5,30.13,SSW,200,0.0,0.0,81,0.00,,---,0.00,VWS V14.01,2013-10-30 22:34:00,
2013-10-30 18:39:00,59.2,53.7,30.14,SSW,210,0.0,0.0,82,0.00,,---,0.00,VWS V14.01,2013-10-30 22:39:00,
2013-10-30 18:40:00,59.2,53.4,30.13,SW,225,0.0,1.0,81,0.00,,---,0.00,VWS V14.01,2013-10-30 22:40:00,
2013-10-30 18:44:00,59.1,53.6,30.14,SW,215,0.0,0.0,82,0.00,,---,0.00,VWS V14.01,2013-10-30 22:44:00,
2013-10-30 18:49:00,59.0,53.5,30.14,SW,225,0.0,0.0,82,0.00,,---,0.00,VWS V14.01,2013-10-30 22:49:00,
2013-10-30 18:50:00,59.0,53.5,30.14,WSW,242,0.0,1.0,82,0.00,,---,0.00,VWS V14.01,2013-10-30 22:50:00,
2013-10-30 18:54:00,58.8,53.7,30.14,WSW,245,0.0,2.0,83,0.00,,---,0.00,VWS V14.01,2013-10-30 22:54:00,
2013-10-30 18:59:00,58.7,53.9,30.14,South,172,0.0,4.0,84,0.00,,---,0.00,VWS V14.01,2013-10-30 22:59:00,
2013-10-30 19:00:00,58.7,53.9,30.14,SW,229,2.0,4.0,84,0.00,,---,0.00,VWS V14.01,2013-10-30 23:00:00,
2013-10-30 19:04:00,58.6,53.8,30.14,SW,221,0.0,4.0,84,0.00,,---,0.00,VWS V14.01,2013-10-30 23:04:00,
2013-10-30 19:09:00,58.6,53.8,30.14,SSW,211,0.0,1.0,84,0.00,,---,0.00,VWS V14.01,2013-10-30 23:09:00,
2013-10-30 19:10:00,58.6,53.8,30.14,WSW,239,1.0,4.0,84,0.00,,---,0.00,VWS V14.01,2013-10-30 23:10:00,
2013-10-30 19:14:00,58.5,54.0,30.14,WSW,253,0.0,3.0,85,0.00,,---,0.00,VWS V14.01,2013-10-30 23:14:00,
2013-10-30 19:19:00,58.5,54.0,30.15,SW,229,0.0,2.0,85,0.00,,---,0.00,VWS V14.01,2013-10-30 23:19:00,
2013-10-30 19:20:00,58.5,54.0,30.15,SW,226,0.0,3.0,85,0.00,,---,0.00,VWS V14.01,2013-10-30 23:20:00,
2013-10-30 19:24:00,58.4,53.9,30.15,WSW,242,0.0,2.0,85,0.00,,---,0.00,VWS V14.01,2013-10-30 23:24:00,
2013-10-30 19:29:00,58.4,53.9,30.15,SW,229,0.0,0.0,85,0.00,,---,0.00,VWS V14.01,2013-10-30 23:29:00,
2013-10-30 19:30:00,58.4,53.9,30.15,SW,217,0.0,3.0,85,0.00,,---,0.00,VWS V14.01,2013-10-30 23:30:00,
2013-10-30 19:34:00,58.4,53.9,30.15,SW,234,0.0,1.0,85,0.00,,---,0.00,VWS V14.01,2013-10-30 23:34:00,
2013-10-30 19:39:00,58.4,53.9,30.15,WSW,244,0.0,0.0,85,0.00,,---,0.00,VWS V14.01,2013-10-30 23:39:00,
2013-10-30 19:40:00,58.4,53.9,30.15,SW,229,0.0,1.0,85,0.00,,---,0.00,VWS V14.01,2013-10-30 23:40:00,
2013-10-30 19:44:00,58.4,53.9,30.15,SW,230,0.0,0.0,85,0.00,,---,0.00,VWS V14.01,2013-10-30 23:44:00,
2013-10-30 19:49:00,58.3,54.1,30.15,SSW,205,0.0,0.0,86,0.00,,---,0.00,VWS V14.01,2013-10-30 23:49:00,
2013-10-30 19:50:00,58.3,54.1,30.15,SW,230,0.0,0.0,86,0.00,,---,0.00,VWS V14.01,2013-10-30 23:50:00,
2013-10-30 19:54:00,58.3,54.1,30.15,SSW,199,0.0,0.0,86,0.00,,---,0.00,VWS V14.01,2013-10-30 23:54:00,
2013-10-30 19:59:00,58.3,54.1,30.15,WSW,238,0.0,0.0,86,0.00,,---,0.00,VWS V14.01,2013-10-30 23:59:00,
2013-10-30 20:00:00,58.3,54.1,30.15,SSW,199,0.0,0.0,86,0.00,,---,0.00,VWS V14.01,2013-10-31 00:00:00,
2013-10-30 20:04:00,58.3,54.1,30.15,WSW,238,0.0,0.0,86,0.00,,---,0.00,VWS V14.01,2013-10-31 00:04:00,
2013-10-30 20:09:00,58.2,54.0,30.15,WSW,238,0.0,0.0,86,0.00,,---,0.00,VWS V14.01,2013-10-31 00:09:00,
2013-10-30 20:10:00,58.2,54.0,30.15,WSW,238,0.0,0.0,86,0.00,,---,0.00,VWS V14.01,2013-10-31 00:10:00,
2013-10-30 20:14:00,58.2,54.0,30.15,SW,236,0.0,0.0,86,0.00,,---,0.00,VWS V14.01,2013-10-31 00:14:00,
2013-10-30 20:19:00,58.2,54.0,30.15,SSE,150,0.0,0.0,86,0.00,,---,0.00,VWS V14.01,2013-10-31 00:19:00,
2013-10-30 20:20:00,58.2,54.0,30.15,SSE,149,0.0,0.0,86,0.00,,---,0.00,VWS V14.01,2013-10-31 00:20:00,
2013-10-30 20:24:00,58.1,53.9,30.14,SSW,210,0.0,0.0,86,0.00,,---,0.00,VWS V14.01,2013-10-31 00:24:00,
2013-10-30 20:29:00,58.2,54.4,30.14,SSW,201,0.0,0.0,87,0.00,,---,0.00,VWS V14.01,2013-10-31 00:29:00,
2013-10-30 20:30:00,58.1,53.9,30.14,SSW,200,0.0,0.0,86,0.00,,---,0.00,VWS V14.01,2013-10-31 00:30:00,
2013-10-30 20:34:00,58.1,54.3,30.14,SSW,201,0.0,0.0,87,0.00,,---,0.00,VWS V14.01,2013-10-31 00:34:00,
2013-10-30 20:39:00,58.1,54.3,30.14,SSW,207,0.0,0.0,87,0.00,,---,0.00,VWS V14.01,2013-10-31 00:39:00,
2013-10-30 20:40:00,58.1,54.3,30.14,SSW,200,0.0,0.0,87,0.00,,---,0.00,VWS V14.01,2013-10-31 00:40:00,
2013-10-30 20:45:00,58.0,54.2,30.14,SW,232,0.0,0.0,87,0.00,,---,0.00,VWS V14.01,2013-10-31 00:45:00,
2013-10-30 20:50:00,58.0,54.2,30.14,SW,232,0.0,0.0,87,0.00,,---,0.00,VWS V14.01,2013-10-31 00:50:00,
2013-10-30 20:55:00,58.0,54.2,30.14,SW,232,0.0,0.0,87,0.00,,---,0.00,VWS V14.01,2013-10-31 00:55:00,
2013-10-30 21:00:00,57.9,54.1,30.14,SW,232,0.0,0.0,87,0.00,,---,0.00,VWS V14.01,2013-10-31 01:00:00,
2013-10-30 21:05:00,57.8,54.0,30.13,SW,230,0.0,0.0,87,0.00,,---,0.00,VWS V14.01,2013-10-31 01:05:00,
2013-10-30 21:10:00,57.6,53.8,30.13,SW,214,0.0,0.0,87,0.00,,---,0.00,VWS V14.01,2013-10-31 01:10:00,
2013-10-30 21:15:00,57.6,54.1,30.13,SW,221,0.0,0.0,88,0.00,,---,0.00,VWS V14.01,2013-10-31 01:15:00,
2013-10-30 21:20:00,57.5,54.0,30.13,SW,221,0.0,0.0,88,0.00,,---,0.00,VWS V14.01,2013-10-31 01:20:00,
2013-10-30 21:25:00,57.3,53.8,30.13,SW,221,0.0,0.0,88,0.00,,---,0.00,VWS V14.01,2013-10-31 01:25:00,
2013-10-30 21:30:00,57.2,53.7,30.13,SW,221,0.0,0.0,88,0.00,,---,0.00,VWS V14.01,2013-10-31 01:30:00,
2013-10-30 21:35:00,57.1,53.9,30.14,SW,221,0.0,0.0,89,0.00,,---,0.00,VWS V14.01,2013-10-31 01:35:00,
2013-10-30 21:40:00,57.2,54.0,30.14,SW,221,0.0,0.0,89,0.00,,---,0.00,VWS V14.01,2013-10-31 01:40:00,
2013-10-30 21:45:00,57.1,53.9,30.14,SW,220,0.0,0.0,89,0.00,,---,0.00,VWS V14.01,2013-10-31 01:45:00,
2013-10-30 21:50:00,57.1,53.9,30.14,SW,221,0.0,0.0,89,0.00,,---,0.00,VWS V14.01,2013-10-31 01:50:00,
2013-10-30 21:55:00,57.1,53.9,30.14,SW,221,0.0,0.0,89,0.00,,---,0.00,VWS V14.01,2013-10-31 01:55:00,
2013-10-30 22:00:00,57.0,53.8,30.14,SW,221,0.0,0.0,89,0.00,,---,0.00,VWS V14.01,2013-10-31 02:00:00,
2013-10-30 22:05:00,57.0,53.8,30.14,SW,221,0.0,0.0,89,0.00,,---,0.00,VWS V14.01,2013-10-31 02:05:00,
2013-10-30 22:10:00,57.1,53.9,30.14,SW,229,0.0,0.0,89,0.00,,---,0.00,VWS V14.01,2013-10-31 02:10:00,
2013-10-30 22:15:00,57.3,54.4,30.14,SSW,194,0.0,0.0,90,0.00,,---,0.00,VWS V14.01,2013-10-31 02:15:00,
2013-10-30 22:20:00,57.4,54.2,30.14,SSW,194,0.0,0.0,89,0.00,,---,0.00,VWS V14.01,2013-10-31 02:20:00,
2013-10-30 22:25:00,57.4,54.2,30.13,SSE,165,0.0,0.0,89,0.00,,---,0.00,VWS V14.01,2013-10-31 02:25:00,
2013-10-30 22:30:00,57.4,54.2,30.13,SSE,160,0.0,0.0,89,0.00,,---,0.00,VWS V14.01,2013-10-31 02:30:00,
2013-10-30 22:35:00,57.5,54.3,30.13,SW,232,0.0,0.0,89,0.00,,---,0.00,VWS V14.01,2013-10-31 02:35:00,
2013-10-30 22:40:00,57.6,54.4,30.13,SSW,206,0.0,0.0,89,0.00,,---,0.00,VWS V14.01,2013-10-31 02:40:00,
2013-10-30 22:45:00,57.7,54.5,30.13,SSW,211,0.0,0.0,89,0.00,,---,0.00,VWS V14.01,2013-10-31 02:45:00,
2013-10-30 22:50:00,57.8,54.6,30.13,SSW,211,0.0,0.0,89,0.00,,---,0.00,VWS V14.01,2013-10-31 02:50:00,
2013-10-30 22:55:00,57.9,54.7,30.13,SSW,212,0.0,0.0,89,0.00,,---,0.00,VWS V14.01,2013-10-31 02:55:00,
2013-10-30 23:00:00,57.9,54.7,30.12,SSW,211,0.0,0.0,89,0.00,,---,0.00,VWS V14.01,2013-10-31 03:00:00,
2013-10-30 23:05:00,57.9,54.7,30.12,SSW,211,0.0,0.0,89,0.00,,---,0.00,VWS V14.01,2013-10-31 03:05:00,
2013-10-30 23:10:00,58.0,55.1,30.12,SSW,212,0.0,0.0,90,0.00,,---,0.00,VWS V14.01,2013-10-31 03:10:00,
2013-10-30 23:15:00,58.1,54.9,30.12,SSW,212,0.0,0.0,89,0.00,,---,0.00,VWS V14.01,2013-10-31 03:15:00,
2013-10-30 23:20:00,58.1,54.9,30.12,SSW,211,0.0,0.0,89,0.00,,---,0.00,VWS V14.01,2013-10-31 03:20:00,
2013-10-30 23:25:00,58.2,55.0,30.11,SSW,211,0.0,0.0,89,0.00,,---,0.00,VWS V14.01,2013-10-31 03:25:00,
2013-10-30 23:30:00,58.1,54.9,30.11,SSW,211,0.0,0.0,89,0.00,,---,0.00,VWS V14.01,2013-10-31 03:30:00,
2013-10-30 23:35:00,57.9,54.7,30.11,SSW,211,0.0,0.0,89,0.00,,---,0.00,VWS V14.01,2013-10-31 03:35:00,
2013-10-30 23:40:00,57.9,55.0,30.10,SSW,212,0.0,0.0,90,0.00,,---,0.00,VWS V14.01,2013-10-31 03:40:00,
2013-10-30 23:45:00,58.0,55.1,30.10,SSW,211,0.0,0.0,90,0.00,,---,0.00,VWS V14.01,2013-10-31 03:45:00,
2013-10-30 23:50:00,58.0,55.1,30.10,SSW,211,0.0,0.0,90,0.00,,---,0.00,VWS V14.01,2013-10-31 03:50:00,
2013-10-30 23:55:00,57.9,55.0,30.10,SSW,211,0.0,0.0,90,0.00,,---,0.00,VWS V14.01,2013-10-31 03:55:00,